Regional Weather Roundup
Issued by NWS

Home | Current Version | Previous Version | Graphics & Text | Print | Product List | Glossary On
Versions: 1 2 3 4 5 6 7 8 9 10 11 12 13 14 15 16 17 18 19 20 21 22 23 24 25 26 27 28 29 30 31 32 33 34 35 36 37 38 39 40 41 42 43 44 45 46 47 48 49 50
827
ASUS43 KLSX 250910
RWRMO

WEATHER SUMMARY FOR MISSOURI
NATIONAL WEATHER SERVICE SPRINGFIELD MO
400 AM CDT SAT MAR 25 2017

NOTE: "FAIR" INDICATES FEW OR NO CLOUDS BELOW 12,000 FEET WITH NO
       SIGNIFICANT WEATHER AND/OR OBSTRUCTIONS TO VISIBILITY.
       CURRENT SKY AND/OR WEATHER CONDITIONS ARE NOT AVAILABLE FOR
       CHILLICOTHE AND FARMINGTON.

MOZ001>031-035>038-043-044-053-054-251000-
...NORTHERN AND WESTERN MISSOURI...

CITY           SKY/WX    TMP DP  RH WIND       PRES   REMARKS
KANSAS CTY INT CLOUDY    52  52 100 NW6       29.75F FOG
KANSAS C DTWN  CLOUDY    57  52  83 E8        29.74S
LEE`S SUMMIT   PTCLDY    51  48  89 E7        29.76S
ST JOSEPH      RAIN      48  48 100 N12       29.78F FOG
CHILLICOTHE      N/A     54  53  97 N5        29.79F
KIRKSVILLE     CLOUDY    56  55  97 NE8       29.80F

$$
MOZ066>068-077>081-088>096-101>105-251000-
...SOUTHWEST MISSOURI...

CITY           SKY/WX    TMP DP  RH WIND       PRES   REMARKS
SPRINGFIELD    PTCLDY    52  50  93 SE13      29.76F
JOPLIN         CLEAR     53  52  96 E6        29.73F
BRANSON        CLOUDY    50  50 100 E6        29.78F

$$
MOZ032>034-039>042-045>050-055>058-069>072-251000-
...CENTRAL MISSOURI...

CITY           SKY/WX    TMP DP  RH WIND       PRES   REMARKS
COLUMBIA       CLOUDY    56  56 100 S3        29.78F
JEFFERSON CITY CLOUDY    57  54  89 SE8       29.78S
ROLLA          CLOUDY    53  52  96 SE12      29.78S
SEDALIA        CLOUDY    54  50  86 E5        29.79S
WHITEMAN AFB   CLOUDY    53  53 100 E5        29.76F
WARRENSBURG    CLOUDY    52  46  82 E7        29.77S
OSAGE BEACH    CLOUDY   N/A N/A N/A SW6       29.81R

$$
MOZ051-052-059>065-251000-
...EAST CENTRAL MISSOURI...

CITY           SKY/WX    TMP DP  RH WIND       PRES   REMARKS
ST LOUIS INTL  LGT RAIN  60  57  89 SE7       29.83F
SPIRIT OF STL  LGT RAIN  58  58 100 SE8       29.82F
ST CHARLES     LGT RAIN  58  58 100 E9        29.81F

$$
MOZ072>076-082>087-097>100-106>115-251000-
...SOUTH CENTRAL AND SOUTHEAST MISSOURI...

CITY           SKY/WX    TMP DP  RH WIND       PRES   REMARKS
CAPE GIRARDEAU LGT RAIN  56  53  90 SW8       29.93S
FARMINGTON     RAIN      54  53  97 SE7       29.87F
POPLAR BLUFF   LGT RAIN  55  54  96 SE6       29.91F
WEST PLAINS    CLOUDY    53  52  96 SE6       29.86R

$$




USA.gov is the U.S. government's official web portal to all federal, state and local government web resources and services.